Starlink 31231

operational
NORAD ID: 59034 Int'l Des: 2024-038 Owner: SPXS Country: US Constellation: starlink
LEOCIRCULAR

Starlink 31231について

説明を読み込み中...

リアルタイム位置

3D地球を読み込み中...

次回通過

高度履歴

Altitude vs Time

uPlot chart will show altitude changes over time

軌道要素

1 59034U 24038M 25307.66213154 .00005335 00000-0 20318-3 0 9996
2 59034 43.0073 15.3310 0002489 263.5810 96.4758 15.27590411 95414
Epoch: Nov 3, 2025 • Age: 18 hours

現在のステータス

高度 486.9 km
速度 7.63 km/s
衛星直下点 39.38°N, 113.35°W
打ち上げ日 Feb 25, 2024
運用期間 1.6 years
タイプ internet

技術仕様

分類 Payload
質量 730.00 kg
乾燥質量 700.00 kg
総質量 730.00 kg
長さ 0.30 m
直径 4.10 m
スパン 29.00 m
形状 Box + pan
製造者 SPXS
バスタイプ Starlink V2M
フェーズステータス In Orbit
所有者/国 SPXS/US

大規模コンステレーション

Loading constellations...